[[{"header":{"parameterUnit":"m.s-1","parameterCategory":1,"la1":30.2991,"la2":30.254,"lo1":-89.0895,"lo2":-89.0444,"dy":0.0017,"dx":0.0017,"nx":28,"ny":28,"refTime":"2023-09-16T21:00:00:Z","depth":0,"parameterNumber":2,"parameterNumberName":"U-component_of_WINDS"},"data":[0,0,0,0,0,0,0,0,0,0,0,0,0,0,0,0,0,0,0,0,0,0,0,0,0,0,0,0,0,0,0,0,0,0,0,0,0,0,0,0,0,0,0,0,0,0,0,0,0,0,0,0,0,0,0,0,0,0,-2.1266,-2.1267,0,-2.1366,-2.1367,-2.1368,-2.1261,-2.1257,-2.1252,-2.1248,-2.1355,-2.1362,-2.1368,0,0,0,0,0,0,0,0,0,0,0,0,0,-2.0983,-2.0988,-2.1265,-2.1267,-2.1268,-2.1366,-2.1367,-2.1369,-2.1261,-2.1256,-2.1251,-2.1247,-2.1353,-2.1361,-2.1369,0,0,0,0,0,0,0,0,0,0,0,0,0,-2.1097,-2.099,-2.1265,-2.1226,-2.1224,-2.1366,-2.1367,-2.1369,-2.1263,-2.1256,-2.125,-2.1244,-2.135,-2.136,-2.137,-2.1557,0,0,-2.1401,-2.1405,0,0,0,0,0,0,0,0,-2.109,-2.1107,-2.1231,-2.1229,-2.1226,-2.1294,-2.1307,-2.1432,-2.1264,-2.1248,-2.1248,-2.1241,-2.134,-2.1351,-2.1383,-2.1562,-2.1566,-2.1402,-2.1408,-2.1412,-2.1415,0,0,0,0,0,0,0,-2.1083,-2.1102,-2.1305,-2.1233,-2.123,-2.1204,-2.1214,-2.133,-2.1328,-2.1249,-2.1241,-2.1254,-2.1338,-2.1374,-2.1385,-2.1568,-2.1401,-2.141,-2.1417,-2.142,-2.1905,-2.1912,0,0,0,0,0,0,-2.1079,-2.1096,-2.1302,-2.1308,-2.1142,-2.1215,-2.1225,-2.1279,-2.1326,-2.1327,-2.126,-2.1249,-2.136,-2.1374,-2.1388,-2.1612,-2.1412,-2.1421,-2.1427,-2.1898,-2.1907,-2.1914,0,0,0,0,0,0,-2.1073,-2.1098,-2.1298,-2.12,-2.1224,-2.1226,-2.1288,-2.1284,-2.132,-2.1334,-2.1334,-2.1297,-2.1355,-2.1374,-2.1516,-2.1614,-2.1426,-2.1435,-2.189,-2.1901,-2.191,-2.2059,0,0,0,0,0,0,-2.1065,-2.1097,-2.1167,-2.1203,-2.1229,-2.1424,-2.1294,-2.1291,-2.1337,-2.1325,-2.1369,-2.1371,-2.1352,-2.1501,-2.1526,-2.1624,-2.1443,-2.1882,-2.1895,-2.1907,-2.2045,-2.2073,-2.2096,0,0,0,0,0,-2.1056,-2.1206,-2.1171,-2.1197,-2.1318,-2.1429,-2.1445,-2.1419,-2.1346,-2.1417,-2.1426,-2.1369,-2.1598,-2.1517,-2.1543,-2.1646,-2.1875,-2.1891,-2.1906,-2.2034,-2.2067,-2.2096,0,0,0,0,0,0,-2.1183,-2.121,-2.1172,-2.1338,-2.1382,-2.1411,-2.15,-2.1456,-2.1523,-2.1508,-2.1474,-2.1486,-2.1636,-2.1654,-2.1563,-2.183,-2.1725,-2.1746,-2.1813,-2.1845,-2.187,-2.1864,-2.1451,0,0,0,0,0,-2.123,-2.1318,-2.1336,-2.1481,-2.1504,-2.1499,-2.1547,-2.1523,-2.1568,-2.1587,-2.1606,-2.1653,-2.1735,-2.179,-2.1867,-2.2046,-2.2055,-2.213,-2.2155,-2.2176,-2.2196,-2.2294,-2.2328,-2.1965,-2.1964,-2.1964,0,0,-2.1329,-2.1354,-2.1412,-2.1507,-2.1538,-2.1631,-2.1516,-2.1618,-2.1687,-2.1602,-2.1738,-2.1753,-2.1803,-2.1964,-2.2036,-2.1985,-2.2298,-2.2196,-2.2212,-2.2221,-2.2313,-2.2348,-2.2378,-2.1975,-2.1973,-2.1971,0,0,-2.1557,-2.1584,-2.1708,-2.1741,-2.179,-2.1785,-2.1815,-2.185,-2.1857,-2.1992,-2.193,-2.2011,-2.2154,-2.2192,-2.2231,-2.2472,-2.2423,-2.2497,-2.2633,-2.2728,-2.2757,-2.2782,-2.287,-2.2902,-2.2516,-2.2517,-2.2517,0,-2.1674,-2.1811,-2.1777,-2.1885,-2.1929,-2.1855,-2.1981,-2.2015,-2.2087,-2.212,-2.206,-2.2237,-2.2265,-2.2435,-2.2494,-2.2526,-2.2561,-2.2494,-2.2755,-2.278,-2.2803,-2.2887,-2.292,-2.2526,-2.2525,-2.2524,-2.2523,0,-2.1953,-2.2049,-2.2143,-2.2213,-2.2268,-2.2384,-2.2369,-2.2428,-2.2399,-2.2401,-2.2539,-2.257,-2.2652,-2.269,-2.2663,-2.2857,-2.2823,-2.276,-2.2654,-2.2847,-2.2926,-2.2957,-2.2539,-2.2536,-2.2533,-2.2531,0,0,-2.2268,-2.2317,-2.2352,-2.2384,-2.2431,-2.2505,-2.2617,-2.2696,-2.2749,-2.28,-2.2895,-2.3016,-2.2958,-2.3001,-2.2977,-2.3061,-2.3252,-2.2987,-2.2988,-2.3038,-2.347,-2.352,-2.3557,-2.3218,-2.3224,-2.3229,-2.3466,0,-2.2499,-2.2694,-2.2667,-2.2855,-2.2943,-2.2873,-2.2971,-2.3012,-2.3016,-2.3092,-2.3096,-2.3184,-2.3098,-2.3124,-2.3203,-2.3213,-2.3339,-2.3194,-2.3309,-2.3313,-2.3302,-2.3598,-2.3651,-2.3874,-2.3497,-2.3502,-2.3505,0,-2.2795,-2.2857,-2.3054,-2.3087,-2.3123,-2.3212,-2.3283,-2.3355,-2.34,-2.3397,-2.3445,-2.3406,-2.352,-2.341,-2.3567,-2.3469,-2.3514,-2.3525,-2.3533,-2.3546,-2.3424,-2.3621,-2.3944,-2.3979,-2.3553,-2.3549,-2.3546,0,-2.3008,-2.3139,-2.3274,-2.3303,-2.3345,-2.341,-2.343,-2.3468,-2.3517,-2.3578,-2.361,-2.3684,-2.3726,-2.3784,-2.3767,-2.3688,-2.3929,-2.3817,-2.3932,-2.3933,-2.3989,-2.3986,-2.4326,-2.4012,-2.4012,-2.4011,-2.401,0,-2.3271,-2.3395,-2.3371,-2.3455,-2.3591,-2.3558,-2.3695,-2.3707,-2.3741,-2.3826,-2.3769,-2.385,-2.3821,-2.3901,-2.3888,-2.4021,-2.4039,-2.4042,-2.4037,-2.4049,-2.4049,-2.408,-2.4066,-2.402,-2.4018,-2.4016,-2.4015,0,-2.3534,-2.3522,-2.3665,-2.3692,-2.3702,-2.3802,-2.3826,-2.3905,-2.3903,-2.4012,-2.4035,-2.4033,-2.4125,-2.4112,-2.4213,-2.4204,-2.4371,-2.4347,-2.4357,-2.4353,-2.4469,-2.4459,-2.4844,-2.4893,-2.4545,-2.4548,-2.4551,0,-2.3704,-2.3797,-2.3834,-2.3887,-2.3912,-2.3997,-2.4047,-2.4017,-2.4072,-2.4128,-2.4201,-2.4286,-2.4354,-2.4503,-2.4511,-2.4589,-2.4567,-2.4696,-2.4579,-2.4588,-2.4573,-2.4569,-2.4579,-2.4721,-2.4725,-2.4728,-2.4731,0,-2.4008,-2.3997,-2.407,-2.4142,-2.4203,-2.4258,-2.4308,-2.4354,-2.4329,-2.4393,-2.4485,-2.4537,-2.464,-2.4726,-2.4799,-2.482,-2.4774,-2.4767,-2.4798,-2.4813,-2.4816,-2.4819,-2.4424,-2.476,-2.4757,-2.4755,-2.4753,-2.4752,-2.4232,-2.4312,-2.4351,-2.4434,-2.4468,-2.4515,-2.4591,-2.4598,-2.4674,-2.4755,-2.4732,-2.4837,-2.4879,-2.4971,-2.5,-2.5082,-2.5035,-2.508,-2.5092,-2.5104,-2.5119,-2.48,-2.5095,-2.5094,-2.5093,-2.5093,-2.5092,0,-2.4535,-2.4556,-2.4633,-2.4704,-2.477,-2.4716,-2.4768,-2.4827,-2.492,-2.4962,-2.5028,-2.5135,-2.5218,-2.5232,-2.5311,-2.5374,-2.5354,-2.5396,-2.5393,-2.5399,-2.5156,-2.5122,-2.5411,-2.5411,-2.5411,-2.5411,-2.5411,-2.5411,-2.4702,-2.4835,-2.4829,-2.4979,-2.4998,-2.51,-2.5134,-2.5178,-2.5211,-2.5332,-2.5401,-2.5408,-2.544,-2.552,-2.5595,-2.5596,-2.563,-2.5681,-2.5675,-2.5448,-2.5416,-2.5386,-2.5355,-2.5688,-2.5688,-2.5912,-2.5914,-2.5916]},{"header":{"parameterUnit":"m.s-1","parameterCategory":1,"la1":30.2991,"la2":30.254,"lo1":-89.0895,"lo2":-89.0444,"dy":0.0017,"dx":0.0017,"nx":28,"ny":28,"refTime":"2023-09-16T21:00:00:Z","depth":0,"parameterNumber":3,"parameterNumberName":"V-component_of_WINDS"},"data":[0,0,0,0,0,0,0,0,0,0,0,0,0,0,0,0,0,0,0,0,0,0,0,0,0,0,0,0,0,0,0,0,0,0,0,0,0,0,0,0,0,0,0,0,0,0,0,0,0,0,0,0,0,0,0,0,0,0,-3.2179,-3.218,0,-3.2247,-3.2248,-3.2249,-3.2212,-3.221,-3.2208,-3.2207,-3.2273,-3.2276,-3.2279,0,0,0,0,0,0,0,0,0,0,0,0,0,-3.2013,-3.2016,-3.2179,-3.218,-3.2181,-3.2247,-3.2248,-3.2249,-3.2212,-3.221,-3.2208,-3.2206,-3.2272,-3.2276,-3.228,0,0,0,0,0,0,0,0,0,0,0,0,0,-3.2083,-3.2017,-3.2179,-3.2171,-3.2171,-3.2247,-3.2248,-3.2249,-3.2213,-3.221,-3.2207,-3.2205,-3.227,-3.2275,-3.228,-3.2368,0,0,-3.2296,-3.2299,0,0,0,0,0,0,0,0,-3.2079,-3.2089,-3.2171,-3.2171,-3.2171,-3.2218,-3.2214,-3.2289,-3.2214,-3.2197,-3.2207,-3.2203,-3.2257,-3.2263,-3.2281,-3.2371,-3.2374,-3.2297,-3.23,-3.2302,-3.2304,0,0,0,0,0,0,0,-3.2075,-3.2086,-3.2206,-3.2172,-3.2172,-3.2162,-3.2169,-3.2228,-3.2241,-3.2198,-3.2195,-3.2204,-3.2256,-3.2277,-3.2283,-3.2375,-3.2297,-3.2301,-3.2304,-3.2306,-3.2538,-3.2541,0,0,0,0,0,0,-3.2071,-3.2082,-3.2204,-3.2208,-3.2118,-3.2167,-3.2175,-3.2206,-3.224,-3.2243,-3.2207,-3.2202,-3.2269,-3.2277,-3.2285,-3.2389,-3.2302,-3.2307,-3.231,-3.2535,-3.2539,-3.2542,0,0,0,0,0,0,-3.2067,-3.2082,-3.2201,-3.2145,-3.2159,-3.2173,-3.2208,-3.2209,-3.2229,-3.2247,-3.2249,-3.2225,-3.2267,-3.2278,-3.2348,-3.2391,-3.2309,-3.2314,-3.2532,-3.2536,-3.2541,-3.2599,0,0,0,0,0,0,-3.2063,-3.2081,-3.2115,-3.2146,-3.2162,-3.2264,-3.2211,-3.2212,-3.2239,-3.2234,-3.2265,-3.2267,-3.2266,-3.234,-3.2353,-3.2397,-3.2318,-3.2528,-3.2534,-3.2539,-3.2593,-3.2605,-3.2615,0,0,0,0,0,-3.2057,-3.2128,-3.2117,-3.2132,-3.2206,-3.2267,-3.2276,-3.2274,-3.2243,-3.2277,-3.2288,-3.2266,-3.2384,-3.2348,-3.2362,-3.2408,-3.2525,-3.2532,-3.2539,-3.2588,-3.2602,-3.2614,0,0,0,0,0,0,-3.2101,-3.2132,-3.212,-3.2204,-3.2233,-3.226,-3.2303,-3.2289,-3.2326,-3.232,-3.2314,-3.2322,-3.2394,-3.2408,-3.2366,-3.2494,-3.245,-3.246,-3.2482,-3.2496,-3.2507,-3.2502,-3.2322,0,0,0,0,0,-3.2121,-3.2169,-3.2193,-3.2264,-3.228,-3.2289,-3.2316,-3.2311,-3.2341,-3.2353,-3.2369,-3.2397,-3.244,-3.2469,-3.251,-3.2595,-3.26,-3.2633,-3.2644,-3.2653,-3.2661,-3.2707,-3.2721,-3.2565,-3.2565,-3.2564,0,0,-3.2162,-3.2185,-3.2215,-3.2274,-3.2296,-3.2345,-3.23,-3.2353,-3.2389,-3.236,-3.2428,-3.2441,-3.2471,-3.2549,-3.2584,-3.2563,-3.2706,-3.2662,-3.2669,-3.2672,-3.2715,-3.273,-3.2743,-3.2569,-3.2568,-3.2568,0,0,-3.2261,-3.2284,-3.2346,-3.2369,-3.2404,-3.2409,-3.2424,-3.2454,-3.2461,-3.2529,-3.2509,-3.255,-3.2625,-3.2648,-3.2669,-3.2777,-3.2758,-3.279,-3.2847,-3.2891,-3.2903,-3.2914,-3.2952,-3.2966,-3.2799,-3.2799,-3.2799,0,-3.2308,-3.2382,-3.2379,-3.2435,-3.246,-3.2438,-3.2499,-3.2522,-3.2567,-3.2585,-3.256,-3.2654,-3.2673,-3.2755,-3.2782,-3.28,-3.2816,-3.2787,-3.2902,-3.2913,-3.2923,-3.2959,-3.2973,-3.2802,-3.2802,-3.2802,-3.2801,0,-3.2436,-3.2488,-3.2533,-3.2579,-3.261,-3.2668,-3.2673,-3.2705,-3.2698,-3.2705,-3.2774,-3.2796,-3.2841,-3.286,-3.2854,-3.2942,-3.2927,-3.2903,-3.2858,-3.2942,-3.2975,-3.2989,-3.2808,-3.2806,-3.2805,-3.2804,0,0,-3.2566,-3.261,-3.2626,-3.2647,-3.2683,-3.2722,-3.2778,-3.2823,-3.285,-3.2882,-3.2928,-3.2992,-3.297,-3.2994,-3.2989,-3.3028,-3.3111,-3.2998,-3.2999,-3.3018,-3.3209,-3.3227,-3.3243,-3.3099,-3.3102,-3.3104,-3.3206,0,-3.2667,-3.2768,-3.2767,-3.2859,-3.2906,-3.2885,-3.2934,-3.2961,-3.297,-3.301,-3.3018,-3.3064,-3.3031,-3.3045,-3.3083,-3.3093,-3.3149,-3.3086,-3.3141,-3.3143,-3.3134,-3.3261,-3.3281,-3.3376,-3.3219,-3.3222,-3.3223,0,-3.2799,-3.2837,-3.2935,-3.2963,-3.2983,-3.3027,-3.3068,-3.3107,-3.3136,-3.314,-3.3167,-3.3156,-3.3212,-3.3167,-3.3243,-3.32,-3.3222,-3.3231,-3.3235,-3.3239,-3.3188,-3.3269,-3.3407,-3.3421,-3.3244,-3.3242,-3.3241,0,-3.2884,-3.2958,-3.3026,-3.3044,-3.308,-3.3111,-3.3127,-3.3154,-3.3181,-3.3216,-3.3233,-3.3274,-3.3296,-3.3327,-3.3327,-3.3294,-3.3405,-3.3359,-3.3408,-3.3408,-3.3432,-3.3431,-3.3575,-3.3447,-3.3447,-3.3447,-3.3447,0,-3.2997,-3.3057,-3.3064,-3.3106,-3.3173,-3.317,-3.3236,-3.3249,-3.3273,-3.3315,-3.3299,-3.3339,-3.3337,-3.3378,-3.3378,-3.3441,-3.3451,-3.3454,-3.3454,-3.3456,-3.3455,-3.347,-3.3463,-3.3451,-3.345,-3.3449,-3.3448,0,-3.3102,-3.311,-3.3182,-3.321,-3.3218,-3.3266,-3.3289,-3.3328,-3.3335,-3.339,-3.3402,-3.3413,-3.346,-3.3463,-3.3517,-3.3517,-3.3593,-3.3585,-3.3584,-3.3582,-3.3631,-3.3626,-3.379,-3.3811,-3.367,-3.3671,-3.3672,0,-3.3174,-3.322,-3.3253,-3.3281,-3.33,-3.3345,-3.3373,-3.3372,-3.3401,-3.3437,-3.3472,-3.3517,-3.3553,-3.3629,-3.364,-3.3681,-3.3674,-3.3728,-3.368,-3.368,-3.3674,-3.3671,-3.3676,-3.3738,-3.3739,-3.374,-3.3742,0,-3.33,-3.3302,-3.3343,-3.3386,-3.3419,-3.3452,-3.3483,-3.3507,-3.3509,-3.3543,-3.3591,-3.3619,-3.3674,-3.3719,-3.3759,-3.3773,-3.3758,-3.3757,-3.377,-3.3773,-3.377,-3.3772,-3.3609,-3.3753,-3.3752,-3.3751,-3.375,-3.375,-3.3391,-3.3431,-3.346,-3.3506,-3.353,-3.3559,-3.3597,-3.3609,-3.365,-3.3696,-3.3692,-3.3745,-3.3772,-3.3824,-3.3842,-3.3883,-3.3864,-3.3884,-3.3889,-3.3893,-3.3898,-3.3764,-3.389,-3.389,-3.3889,-3.3889,-3.3889,0,-3.3516,-3.3534,-3.3577,-3.3621,-3.3657,-3.364,-3.3673,-3.3704,-3.3752,-3.3779,-3.3815,-3.387,-3.3913,-3.3929,-3.3971,-3.4,-3.3994,-3.4011,-3.4009,-3.4012,-3.3913,-3.3897,-3.4015,-3.4015,-3.4015,-3.4015,-3.4015,-3.4015,-3.3586,-3.3652,-3.3657,-3.3734,-3.3751,-3.3804,-3.3824,-3.3851,-3.3872,-3.3935,-3.3971,-3.3982,-3.4004,-3.4047,-3.4086,-3.4089,-3.4105,-3.4125,-3.4125,-3.4032,-3.4019,-3.4007,-3.3992,-3.4129,-3.4129,-3.4221,-3.4222,-3.4223]}]]